GFSMW_sfc_temp_000.txt.gz
Temp
53 55 55 56 57 56 57 58 58 58 57 54 54 55 54 55 54 53 54 54 54 53 51 50 49 49 48 46 47 46 45 46 44 44 46 46 47 47 48 48 48 49 49
53 55 55 55 55 54 56 55 56 56 57 55 53 55 54 53 53 53 51 51 51 51 52 49 47 47 47 45 44 44 44 44 43 41 40 39 43 45 47 46 47 45 46
52 54 54 52 53 54 54 56 55 56 55 55 54 52 52 51 50 49 48 48 49 49 49 48 47 46 45 44 42 42 42 40 41 41 40 36 34 37 43 44 44 43 43
54 54 53 54 53 52 53 55 56 55 55 54 54 53 50 48 46 46 46 47 48 49 49 48 46 45 44 44 43 43 41 41 37 40 43 40 38 34 34 40 43 42 44
52 55 54 54 52 54 53 52 54 55 53 52 51 48 46 45 45 45 46 47 47 48 47 47 46 45 43 42 42 40 39 39 37 37 36 36 37 37 34 32 36 43 41
50 52 55 56 54 52 51 51 51 49 49 49 48 47 46 45 46 46 46 46 46 45 46 46 43 42 41 41 40 39 38 37 37 36 36 35 33 33 33 31 32 34 38
48 50 53 53 49 48 49 50 48 47 48 48 48 47 48 47 47 46 44 44 45 44 43 42 41 41 41 41 40 39 38 36 35 35 35 35 34 35 33 32 30 31 33
50 50 47 47 47 48 48 48 48 47 47 47 47 46 46 45 45 44 44 45 42 41 41 41 41 41 44 41 43 41 37 36 35 34 33 33 33 33 33 32 30 27 29
46 47 47 47 47 47 46 46 47 46 46 45 44 44 44 44 43 43 42 41 41 43 40 40 42 42 40 41 40 37 39 36 35 34 33 32 33 32 31 32 31 28 24
46 47 47 47 46 46 45 47 46 44 44 43 43 43 42 42 41 39 39 39 40 42 43 44 41 42 41 42 40 37 36 35 33 34 32 32 32 31 31 30 30 29 27
45 45 45 45 46 48 48 47 44 44 43 42 42 41 40 40 40 39 38 38 40 41 41 42 42 39 39 38 36 35 34 34 33 32 32 32 31 30 30 30 30 29 29
45 45 45 47 47 45 45 43 43 43 42 41 41 40 40 39 38 38 38 38 39 39 40 39 39 38 37 36 34 34 33 32 32 32 31 31 35 30 29 28 28 28 29
44 44 44 46 46 44 42 44 45 42 41 40 39 38 38 37 37 37 37 38 37 38 38 38 37 36 36 35 34 33 33 31 31 31 30 30 29 28 27 28 28 28 31
44 43 43 44 43 43 45 44 42 41 40 39 38 38 37 37 36 36 36 36 37 37 36 36 36 36 36 35 33 32 31 31 31 31 30 29 29 28 28 28 28 29 27
43 43 42 41 44 44 42 42 40 40 40 39 38 38 37 37 37 36 36 36 36 39 36 35 34 34 35 34 32 32 31 30 29 30 30 31 32 34 33 31 28 28 27
44 45 44 46 44 42 41 41 40 40 40 38 38 38 38 37 36 35 35 35 38 34 33 33 33 33 35 36 37 35 30 30 29 29 29 29 31 31 32 31 31 31 27
46 45 46 44 43 41 41 40 40 40 38 38 38 38 37 36 35 35 34 34 33 33 33 32 32 29 30 35 35 32 28 27 26 28 26 27 30 28 28 28 30 30 30
45 44 43 42 41 40 40 39 38 38 37 37 37 37 36 35 34 33 33 33 33 32 30 29 29 29 32 34 32 31 26 26 26 26 25 25 25 26 28 27 27 28 29
43 44 43 42 40 39 39 38 37 37 37 37 36 36 35 34 33 33 32 32 32 31 30 31 29 28 27 33 32 30 24 24 24 26 26 26 25 28 30 27 25 26 28
44 44 42 41 39 39 38 37 37 36 35 36 36 36 35 33 32 32 31 31 30 31 31 29 27 30 25 30 31 29 21 17 22 24 26 26 27 29 30 26 24 22 26
43 42 41 39 39 38 38 36 35 35 36 36 35 35 34 33 32 31 30 30 28 28 25 26 25 26 27 25 30 30 20 20 22 22 22 24 26 29 29 29 24 25 26
41 40 39 39 38 38 36 34 33 36 35 35 34 33 33 33 34 30 29 28 26 25 22 15 18 21 22 27 27 29 28 28 14 20 22 21 28 27 27 26 28 27 24
40 39 39 38 38 37 35 33 34 34 33 32 32 33 33 33 32 29 27 26 24 20 20 23 16 19 22 20 26 27 28 27 16 19 22 25 25 24 24 24 25 23 21
39 38 37 35 35 35 35 33 33 33 31 31 31 31 31 32 31 31 30 27 20 19 23 20 20 16 17 16 17 19 15 19 21 17 16 17 21 17 19 20 19 19 20
38 37 36 34 34 34 33 33 32 31 30 31 31 30 29 29 31 30 29 28 27 25 21 20 19 8 5 15 21 22 16 11 16 9 7 11 15 15 17 17 17 16 17
36 36 35 33 33 32 30 30 31 30 29 31 34 30 31 32 30 30 30 33 33 32 32 31 21 13 23 28 29 30 29 28 25 11 4 0 2 10 15 15 15 13 13

GFSMW_sfc_temp_003.txt.gz
Temp
59 61 61 63 65 66 65 65 64 65 66 65 65 65 65 64 64 65 63 63 63 64 63 64 63 63 62 60 60 62 58 60 58 58 60 61 61 61 62 62 61 60 60
60 60 62 65 67 66 68 67 67 67 69 68 67 66 65 64 64 63 61 62 61 63 63 62 63 62 62 59 58 58 58 58 55 53 54 53 57 60 59 59 58 57 58
59 60 61 63 63 64 64 66 67 67 67 65 65 64 64 63 64 62 63 62 62 64 64 62 62 61 60 59 57 56 55 54 54 52 52 48 47 49 56 55 56 55 55
61 62 61 61 62 63 64 66 65 65 63 62 63 61 62 61 59 60 62 63 61 62 63 61 60 59 59 56 55 56 54 53 50 53 53 51 49 44 43 52 53 53 52
62 61 62 63 64 63 62 61 61 60 60 61 60 61 59 59 61 61 58 58 59 59 59 59 57 57 56 55 54 53 53 53 51 50 49 48 48 48 43 40 45 50 51
61 63 63 63 61 61 59 59 59 58 59 59 58 58 57 57 58 57 57 58 58 59 58 57 55 55 54 54 53 51 51 51 51 51 49 47 44 43 42 40 42 42 47
60 60 62 62 59 58 57 58 58 57 58 57 57 56 56 56 55 55 55 54 56 57 57 55 54 54 53 51 53 51 50 50 50 49 48 48 47 46 45 42 41 40 44
59 60 59 58 57 56 56 57 57 56 56 56 56 56 55 56 56 54 54 53 53 53 54 53 52 52 52 52 50 51 51 50 49 47 46 46 47 45 44 41 39 36 40
58 57 56 56 56 56 55 55 56 56 56 54 54 53 53 52 52 51 52 52 51 52 51 51 52 51 51 51 51 50 49 48 47 46 46 45 46 45 44 43 42 37 31
55 55 55 54 55 55 54 54 56 55 54 54 53 52 52 52 52 51 51 51 51 51 51 51 50 50 51 51 49 49 48 46 47 46 45 44 44 44 44 43 42 40 36
54 54 53 54 54 54 54 54 53 54 53 53 51 51 51 51 51 50 50 50 49 50 50 50 50 49 48 49 48 47 46 45 45 44 43 43 44 43 43 42 42 40 39
53 53 53 52 53 53 54 52 54 54 52 51 50 50 50 50 49 49 49 48 48 48 48 48 48 48 48 47 47 46 46 45 43 43 42 42 43 41 42 41 39 39 39
51 52 51 52 52 52 52 54 53 51 51 51 51 50 49 48 48 47 47 47 46 47 47 47 45 46 46 47 45 44 43 43 43 42 41 40 40 39 39 38 37 36 36
50 52 51 52 52 52 52 53 50 50 50 51 50 48 48 47 47 46 46 45 45 45 46 44 45 45 45 45 44 43 43 42 41 41 40 39 38 37 36 35 34 34 32
49 49 49 51 52 50 51 51 50 50 49 49 48 48 47 47 47 46 45 45 45 45 44 44 44 43 43 43 43 42 41 40 39 39 38 38 35 34 34 34 33 32 30
50 50 50 51 51 51 51 50 49 49 48 47 47 48 46 46 46 45 44 44 45 45 44 43 42 41 41 36 36 37 39 37 36 35 35 35 33 34 31 31 31 31 29
51 51 50 51 51 51 50 50 50 49 47 46 47 46 45 45 45 44 44 44 44 44 43 41 41 40 40 35 33 32 37 35 34 33 33 33 34 32 33 32 32 32 31
51 51 52 52 52 52 50 49 49 47 46 46 46 46 45 44 44 43 43 43 44 43 43 41 40 39 37 33 33 32 35 34 33 32 32 31 32 32 31 31 31 32 33
52 53 54 53 51 51 50 48 47 46 45 45 46 46 45 44 43 43 43 43 42 42 41 40 38 37 37 33 32 33 33 31 31 32 32 31 31 30 31 31 29 31 32
52 51 51 50 49 49 48 46 46 45 45 45 46 46 45 44 43 43 43 42 42 41 40 36 36 32 34 30 31 32 31 28 29 31 31 29 29 29 30 29 28 25 29
48 46 48 48 49 48 46 45 45 44 45 45 44 45 45 43 43 43 42 41 40 38 35 33 34 33 33 32 30 30 30 29 29 29 29 30 27 29 29 28 28 26 28
46 47 47 47 45 46 45 44 43 45 44 43 43 43 43 42 42 42 41 39 38 36 33 30 31 33 31 29 29 30 29 29 28 27 28 28 28 27 27 27 26 27 26
46 47 47 45 45 45 44 43 44 42 41 41 41 41 41 41 41 40 39 37 36 35 33 33 32 33 32 32 28 28 28 29 27 29 28 26 26 25 26 25 24 24 25
46 45 44 43 42 43 42 41 40 40 39 38 38 39 39 39 41 40 40 37 35 35 34 34 33 33 32 31 32 31 31 28 28 27 27 24 24 23 23 25 25 25 24
40 43 42 41 41 41 40 40 39 38 37 37 38 37 37 38 38 39 39 37 38 38 36 35 34 31 30 31 30 29 31 30 28 24 26 26 25 24 25 25 24 24 23
41 40 40 40 39 38 38 38 38 37 36 35 38 37 36 36 37 35 37 34 34 32 33 32 31 32 30 29 30 30 31 30 28 26 25 23 22 22 23 23 22 23 20

GFSMW_sfc_temp_006.txt.gz
Temp
73 75 75 77 79 78 76 76 74 75 79 78 76 76 76 75 74 74 71 70 71 71 70 73 71 70 69 67 66 67 66 66 66 63 65 67 68 68 68 68 67 66 65
71 71 73 74 75 75 76 76 76 77 78 79 78 78 78 75 73 73 70 71 70 71 71 69 69 69 68 67 65 63 63 65 64 57 58 56 61 67 66 65 65 63 64
70 70 72 73 75 75 75 76 77 77 76 74 76 75 74 73 75 74 74 71 69 70 70 68 68 67 67 65 64 62 60 59 61 59 55 51 50 55 61 62 62 61 60
72 73 73 73 74 74 76 77 76 74 72 73 72 70 71 70 68 70 71 70 69 68 69 68 66 65 65 64 63 63 59 58 56 59 61 57 54 49 47 57 58 59 58
72 72 73 74 75 73 72 72 72 71 71 71 71 70 68 69 69 68 66 67 68 68 68 67 65 64 65 63 61 59 58 59 56 56 55 54 54 53 49 45 50 55 57
71 73 74 74 73 72 70 70 70 69 69 68 67 65 64 65 65 64 64 65 66 66 66 66 64 63 63 60 60 59 56 55 55 55 54 52 49 49 48 46 47 48 52
71 71 71 71 70 68 68 68 68 66 67 66 66 65 64 63 63 62 62 60 62 62 62 62 61 62 61 60 58 56 54 54 54 52 52 53 52 52 50 48 46 45 50
70 71 72 71 70 67 67 67 67 66 66 65 64 65 64 64 64 61 60 60 59 60 60 60 61 60 58 56 53 55 55 54 54 52 52 52 52 53 51 48 45 41 44
70 71 70 69 67 66 65 66 67 66 65 64 62 62 62 60 59 59 60 59 59 59 59 58 58 56 55 53 56 56 54 54 53 52 52 52 52 52 51 50 48 42 36
70 69 68 66 67 66 66 65 66 65 61 61 62 61 60 60 60 59 57 57 57 58 58 57 56 54 54 56 56 55 55 53 52 53 51 50 51 51 51 51 49 47 42
69 67 66 66 66 65 64 64 64 61 59 63 60 60 60 59 59 58 57 56 56 56 56 56 55 54 54 55 53 53 53 51 51 52 50 49 49 49 49 49 48 46 45
69 67 65 64 63 63 63 63 63 62 63 61 60 59 60 58 57 57 56 55 54 55 54 54 54 54 54 53 52 52 52 51 50 49 49 48 49 47 47 47 45 45 44
66 64 63 62 62 62 62 61 62 62 62 61 61 61 59 57 56 56 55 55 54 53 53 54 52 52 52 52 52 52 51 50 49 48 47 46 46 44 45 44 43 41 39
63 63 62 62 62 62 61 63 59 61 61 61 61 58 57 56 55 55 54 53 53 52 53 53 52 51 52 52 51 50 49 49 48 47 46 45 44 42 41 40 39 38 35
60 61 61 62 63 62 62 61 61 60 60 58 59 57 56 56 55 54 53 53 52 52 53 51 51 51 50 50 48 47 47 47 45 45 45 44 39 35 35 36 36 35 34
60 61 62 63 62 62 61 61 60 59 59 58 57 57 55 54 53 53 52 52 52 52 52 51 49 49 50 36 35 38 45 45 43 42 42 42 38 38 33 33 33 33 32
61 61 62 62 62 61 61 60 60 59 57 56 56 54 54 52 53 53 53 52 51 52 51 51 49 48 47 35 34 34 43 43 42 40 40 39 40 37 38 35 34 34 33
62 63 63 63 60 63 61 62 61 58 56 55 54 54 53 52 53 53 52 52 51 50 50 50 49 47 44 34 33 33 42 42 41 39 39 38 38 38 33 34 35 37 38
65 65 65 64 63 61 62 59 57 57 55 53 54 54 53 53 53 52 51 52 51 50 50 49 47 45 44 33 32 33 39 38 37 38 39 36 36 33 30 32 32 35 36
65 64 64 63 61 61 59 56 56 55 53 53 53 53 54 52 52 52 51 51 50 49 49 46 45 37 41 31 32 33 38 34 35 37 37 33 32 29 30 30 30 28 32
64 63 60 60 59 59 57 54 54 52 53 52 52 53 53 52 52 51 51 50 49 48 44 41 42 41 39 38 31 31 34 34 33 34 35 36 30 29 29 29 30 28 30
61 59 58 55 53 56 54 54 52 54 52 51 51 51 50 49 49 49 49 49 47 45 41 35 38 41 39 32 32 30 30 31 31 31 34 33 30 29 28 29 27 27 27
59 55 51 50 51 52 53 52 52 50 49 49 48 48 48 47 48 47 47 47 46 43 41 40 39 41 41 40 31 30 30 30 31 32 31 28 28 28 30 29 27 27 30
54 52 47 47 45 48 48 49 49 48 47 45 46 46 45 42 45 47 47 46 44 43 41 40 40 41 40 39 39 38 37 31 32 33 33 30 27 28 30 32 32 31 29
46 45 43 44 48 48 47 48 46 46 44 44 43 44 43 41 40 41 46 44 46 44 42 42 41 36 34 37 36 35 35 34 33 29 31 32 32 31 32 32 31 31 29
41 41 45 43 43 44 45 45 45 43 41 40 42 44 43 42 40 40 40 36 36 34 34 34 34 36 34 31 32 31 31 31 30 30 30 30 29 29 30 30 30 30 28

GFSMW_sfc_temp_009.txt.gz
Temp
83 83 84 85 84 82 81 79 79 78 81 81 79 78 76 77 76 76 74 74 74 74 72 73 73 72 71 69 68 67 65 65 67 65 63 64 66 68 69 69 68 66 67
79 79 80 82 82 80 80 80 79 80 82 82 81 80 79 77 76 75 73 74 73 74 73 70 70 70 69 67 66 65 63 64 65 60 59 54 58 64 65 65 65 64 65
77 76 77 78 79 78 79 80 80 81 80 79 79 77 77 75 76 76 76 73 71 72 71 70 69 67 67 66 65 64 61 59 61 62 57 51 49 54 60 60 62 61 62
78 77 77 75 74 78 80 81 80 78 76 78 76 73 74 72 71 72 72 72 72 71 71 70 68 67 66 64 64 66 61 59 56 59 61 58 55 49 47 56 58 59 59
78 77 78 78 80 79 78 78 77 76 76 75 75 73 71 71 72 70 68 69 69 69 69 68 66 65 65 64 63 62 60 59 57 56 55 54 54 54 49 45 50 55 57
77 78 79 79 77 77 75 74 74 74 73 72 71 68 67 67 67 65 65 65 66 66 66 65 63 63 63 62 63 61 58 55 54 56 54 52 50 49 48 46 46 48 52
76 76 76 76 75 73 72 73 73 71 71 70 69 67 66 65 65 64 63 62 63 63 63 62 61 62 63 62 59 54 53 52 52 54 53 54 52 52 50 48 46 46 50
75 76 76 76 74 72 72 72 72 70 69 68 67 67 66 66 66 63 63 62 61 62 61 61 61 62 61 57 57 54 53 52 53 53 52 52 52 52 51 48 46 42 45
75 75 76 76 74 72 71 71 71 70 69 67 65 64 64 63 62 62 62 61 61 61 61 60 60 59 58 56 54 55 54 55 54 53 53 52 52 52 52 51 49 44 37
75 75 76 75 74 72 71 71 71 69 68 65 63 64 63 63 63 62 60 59 59 59 59 58 59 58 58 56 56 55 55 53 53 53 51 51 51 51 51 51 49 48 44
75 75 75 74 73 72 71 69 69 68 65 65 65 61 63 62 62 61 59 59 58 58 58 57 57 57 56 57 55 54 53 53 52 52 50 49 50 49 49 49 49 47 47
76 76 74 72 70 69 68 68 68 66 66 66 62 62 63 62 61 60 59 58 57 57 57 56 56 56 56 55 54 53 53 52 50 50 49 48 50 47 48 48 46 46 46
76 75 73 70 69 68 67 67 66 66 66 64 64 64 63 61 60 59 58 58 57 56 56 56 55 55 53 53 53 53 52 50 49 49 47 47 46 45 46 45 43 43 44
75 74 71 69 69 68 67 66 65 65 65 65 65 63 61 61 59 59 57 56 56 55 55 56 55 53 53 54 53 52 51 49 48 47 47 46 45 43 40 40 39 40 38
72 72 69 69 68 67 66 66 65 64 64 64 64 62 61 60 59 57 56 56 54 55 55 54 53 52 52 52 48 49 48 47 47 47 47 46 42 38 37 37 36 36 34
71 70 69 69 67 67 66 65 64 62 63 61 60 61 60 59 57 56 55 55 55 55 55 54 52 50 51 35 36 37 45 46 46 44 44 44 42 40 37 36 35 35 33
70 69 69 68 68 68 66 64 63 63 61 61 60 59 58 56 55 56 56 55 54 54 54 53 53 50 49 36 35 35 42 45 44 43 42 42 44 40 40 37 36 36 36
70 70 70 69 69 70 67 65 64 62 61 59 58 57 57 56 56 56 55 55 55 54 53 52 52 50 43 35 34 34 40 44 43 42 41 40 40 37 33 33 34 36 38
73 72 72 71 70 69 67 63 63 62 59 55 56 57 57 56 56 55 54 55 54 53 53 52 51 49 43 35 34 33 41 41 40 41 41 40 38 32 31 31 31 33 35
73 72 72 71 69 67 65 62 60 57 56 57 57 57 57 56 55 54 53 54 54 52 52 51 49 38 44 34 33 34 39 37 37 39 40 35 33 30 30 29 29 27 32
73 72 71 69 68 67 64 59 58 56 58 55 55 55 56 55 54 53 53 52 51 51 48 45 46 45 42 39 33 33 35 36 35 36 37 38 33 31 30 30 29 28 29
71 68 67 64 65 63 59 54 51 56 55 54 53 53 53 53 52 49 50 50 50 48 46 39 42 44 43 35 33 33 32 33 32 33 36 35 31 30 30 30 31 29 28
67 64 60 55 54 54 53 50 49 51 51 51 50 50 50 49 48 48 47 47 49 46 43 41 39 42 42 40 34 32 31 31 31 34 34 31 31 31 32 33 31 29 32
62 60 55 51 47 45 45 46 51 50 47 46 46 46 45 45 45 46 48 48 46 44 42 40 40 42 43 43 40 35 34 31 32 33 35 33 31 31 30 31 35 34 33
52 51 45 44 44 48 49 47 46 47 45 42 43 44 43 44 46 46 45 44 47 44 42 42 42 39 36 39 38 37 37 36 34 31 32 33 34 33 33 34 34 33 32
43 41 42 43 45 46 46 46 46 44 41 40 41 42 44 44 45 44 42 40 38 37 37 35 37 39 37 34 34 34 33 32 31 31 31 31 31 30 32 32 32 32 31

GFSMW_sfc_temp_012.txt.gz
Temp
81 81 80 80 79 76 76 75 73 71 72 73 70 68 66 67 67 67 67 66 66 67 65 63 62 62 60 58 59 57 55 54 55 52 53 53 54 53 53 54 54 55 59
79 79 80 79 77 76 75 75 75 74 75 74 71 70 69 67 67 66 66 66 65 65 65 61 60 60 58 57 56 54 52 53 53 48 48 44 48 51 54 52 53 50 53
76 77 78 77 76 73 73 75 71 75 74 71 72 69 68 65 66 65 64 65 65 66 64 61 59 58 57 55 54 53 52 49 50 51 46 42 39 44 48 49 49 49 48
78 77 76 76 71 68 72 75 76 73 73 73 68 66 65 62 62 62 62 63 62 61 62 60 57 55 55 54 53 57 51 50 46 48 53 46 44 40 39 45 46 47 50
77 75 75 72 72 69 73 73 72 72 71 70 68 65 63 62 62 59 59 59 59 60 60 58 55 53 53 53 53 52 51 49 46 44 44 44 43 43 39 37 39 44 46
76 77 73 73 73 73 71 69 70 70 69 66 64 61 59 59 57 57 56 55 56 56 57 57 54 53 53 53 52 50 48 46 45 46 47 44 41 39 38 36 37 39 43
75 75 71 73 73 70 68 68 69 67 66 64 62 60 59 59 56 57 55 54 53 53 53 53 53 52 53 52 51 48 47 46 43 44 44 44 43 43 41 39 38 37 41
74 74 74 72 70 68 68 68 68 66 65 62 61 61 61 59 58 56 56 54 53 52 53 52 53 53 53 51 50 47 46 46 44 43 43 43 44 43 42 39 36 34 37
73 73 73 71 69 68 67 66 68 67 64 62 60 58 58 57 56 57 57 54 53 56 52 52 52 52 52 51 48 46 46 45 45 43 46 43 42 42 42 41 40 34 30
73 73 73 71 70 69 69 66 68 65 63 61 59 59 58 57 57 56 54 53 52 53 52 52 51 51 51 50 49 48 48 46 44 46 44 41 42 43 42 40 40 39 36
72 72 73 72 71 69 68 66 67 65 62 61 59 57 57 57 57 55 54 53 52 52 52 52 51 50 50 50 48 47 47 45 44 45 42 41 43 39 39 39 39 38 38
73 73 73 72 70 68 68 66 65 64 62 61 59 58 58 58 56 55 54 53 52 52 51 51 51 51 50 48 47 46 46 44 41 42 42 41 46 39 39 37 36 36 36
74 74 73 71 69 67 66 65 64 64 63 63 60 59 58 56 55 54 54 53 52 51 50 51 50 50 49 48 47 46 46 44 43 43 40 41 40 36 35 33 33 34 37
74 74 73 70 68 67 66 65 63 62 63 62 61 58 56 57 55 54 53 52 52 50 49 49 50 49 49 49 48 47 43 42 43 41 41 40 38 34 32 33 30 32 29
74 74 72 70 68 66 65 65 63 62 61 58 60 57 56 56 56 53 53 52 51 50 50 49 49 48 48 49 42 42 41 39 39 40 41 40 39 39 35 33 29 28 27
73 73 72 69 67 67 65 65 63 61 60 58 57 59 57 57 53 52 51 51 50 50 49 48 48 47 50 37 37 39 36 39 39 37 37 37 40 37 36 37 37 33 27
71 71 70 70 68 67 65 63 62 61 59 57 58 57 55 52 51 52 52 50 49 49 48 48 47 46 38 37 37 35 35 36 36 35 35 36 41 35 32 33 34 33 35
70 70 69 68 68 68 66 64 64 60 58 57 56 53 52 51 53 52 51 50 49 48 47 47 47 46 39 36 36 35 32 34 35 34 34 33 32 28 29 28 27 29 30
69 70 71 69 68 67 67 64 62 60 57 55 52 52 51 53 52 50 49 48 48 47 46 48 46 43 35 36 35 34 32 33 33 35 35 34 32 31 32 27 26 26 28
72 71 71 70 68 66 65 61 58 56 53 53 54 53 51 52 50 48 48 47 47 47 47 45 44 38 33 35 35 34 29 30 30 32 33 34 31 32 31 25 24 22 25
70 70 69 65 64 64 62 58 55 52 53 52 49 47 50 49 49 47 47 45 44 43 39 37 38 38 35 32 35 34 29 28 28 28 28 29 33 32 32 31 25 24 27
67 67 58 55 55 57 57 54 50 49 48 46 45 49 48 49 49 44 43 43 42 39 39 35 35 34 35 35 34 34 33 33 25 27 28 28 33 32 32 30 31 32 28
62 57 53 49 50 48 50 45 44 45 45 46 46 45 46 46 45 41 40 40 41 37 36 34 32 32 33 33 34 34 33 32 25 27 30 33 32 33 31 33 33 27 23
56 54 50 44 43 44 44 44 45 47 44 42 41 43 41 41 42 43 42 39 36 35 34 33 32 33 33 32 29 29 29 30 28 28 29 27 27 25 26 25 28 27 24
48 46 44 43 43 44 44 45 45 44 42 41 40 40 37 39 41 42 40 35 37 35 33 33 33 32 31 31 35 32 32 30 30 24 23 22 25 24 26 24 25 25 24
43 42 42 42 43 44 44 45 46 44 40 38 37 37 36 36 39 39 39 39 37 37 37 36 34 32 36 35 36 35 35 34 31 23 20 19 20 21 22 21 22 22 22

GFSMW_sfc_temp_018.txt.gz
Temp
68 69 68 68 66 61 65 65 62 61 62 61 59 55 54 55 55 57 58 57 57 57 55 53 53 52 52 50 50 48 48 47 46 45 44 44 44 44 44 45 44 46 47
64 66 66 66 65 64 65 64 64 62 63 64 60 57 58 54 55 55 56 57 56 56 55 52 51 50 50 49 48 47 46 44 44 42 40 37 41 43 44 43 44 41 44
65 64 65 64 65 64 65 65 65 63 64 62 59 56 55 54 53 52 53 54 55 55 52 51 49 48 47 46 45 45 45 43 42 42 41 35 33 35 40 41 40 41 41
68 66 64 63 64 64 67 66 66 64 64 63 61 60 59 56 52 51 51 52 53 52 52 50 48 47 46 45 44 46 42 42 40 40 45 40 40 34 31 37 38 40 42
67 65 64 65 65 64 63 65 64 61 63 62 63 59 52 52 50 49 49 49 49 50 51 49 48 46 45 44 43 43 42 42 40 39 39 38 36 35 32 29 33 36 38
64 61 64 66 64 63 63 62 66 64 64 60 56 57 53 51 49 47 47 47 47 47 48 49 47 45 44 44 43 42 42 40 40 39 39 38 36 35 33 30 30 31 35
60 60 61 63 63 60 59 64 64 60 59 58 53 53 52 51 50 48 47 47 46 45 45 46 45 46 45 45 43 42 41 40 39 39 39 38 37 37 36 33 32 30 32
63 62 62 62 62 60 61 62 62 58 56 54 51 51 52 50 49 49 47 47 46 46 47 48 48 46 47 46 43 42 41 40 39 39 38 37 37 37 37 35 31 28 30
58 60 60 62 60 59 58 57 57 57 56 52 51 50 50 51 50 49 48 46 46 49 49 47 48 45 45 44 43 41 41 40 39 38 38 37 37 36 36 37 35 30 23
58 58 61 59 60 60 58 56 58 56 53 52 51 51 51 51 50 48 47 49 49 49 48 48 46 45 45 44 43 41 41 40 38 38 38 37 39 39 36 35 35 32 28
59 60 59 60 60 59 59 58 58 55 53 52 51 50 49 49 48 49 49 48 47 49 49 48 46 47 45 45 43 43 42 40 39 39 38 38 39 36 35 33 32 30 28
61 61 60 59 59 60 58 57 56 55 54 54 52 51 51 51 49 48 47 48 48 48 48 46 47 46 45 44 43 42 42 40 39 38 39 39 43 35 32 30 29 28 28
58 58 59 59 59 60 59 57 56 56 55 54 52 50 50 50 51 50 49 47 48 47 47 47 45 45 44 44 44 42 41 40 39 39 38 38 36 32 30 30 28 27 31
59 58 58 59 60 60 59 59 56 54 54 54 52 50 51 53 52 49 46 45 45 44 45 46 46 46 45 45 44 41 38 38 39 39 37 36 34 32 30 29 28 28 25
59 59 57 55 57 56 57 58 52 53 53 52 51 51 53 53 50 45 45 45 44 45 46 45 46 46 45 45 41 40 38 37 36 36 37 35 36 39 33 30 26 26 24
58 58 59 56 57 56 55 54 52 53 53 51 51 54 52 49 47 44 44 45 46 47 45 45 44 43 46 42 40 38 35 36 35 34 33 33 37 36 36 35 34 30 24
56 57 56 55 54 54 55 53 52 52 51 50 54 51 49 46 46 46 44 45 45 45 45 44 43 41 41 40 40 38 34 36 34 32 32 33 35 32 30 32 31 30 31
55 55 55 56 54 53 55 53 52 50 48 48 49 48 46 46 46 44 44 43 44 43 42 42 42 40 41 38 38 37 34 33 33 31 30 30 29 28 29 27 26 26 26
51 49 48 48 52 53 51 50 48 47 46 46 46 47 46 45 44 42 41 42 42 41 39 41 41 40 36 37 37 34 31 32 31 32 32 31 28 31 34 28 26 25 26
47 46 46 48 49 48 50 48 46 44 42 44 44 45 44 44 42 41 41 41 40 41 41 39 39 38 34 36 36 35 28 29 28 29 30 34 30 32 32 25 23 21 25
45 45 44 43 44 46 46 43 43 42 44 44 44 44 44 42 41 41 42 41 38 37 34 34 34 34 32 32 36 36 29 28 28 28 27 27 33 33 33 33 25 22 26
42 43 41 40 42 43 43 42 41 44 44 44 43 42 42 43 43 40 39 38 36 33 32 30 31 28 30 33 35 36 34 32 26 27 27 26 32 33 34 32 32 32 28
40 42 42 41 40 42 45 41 41 42 43 42 41 41 41 40 40 36 35 34 34 29 29 28 26 28 29 29 34 35 35 33 26 26 28 30 32 33 31 33 32 28 23
40 40 40 39 39 41 41 40 41 41 40 37 37 36 35 35 36 36 35 32 28 27 30 29 28 27 28 30 29 30 31 31 28 27 28 25 26 22 23 22 26 25 22
38 39 37 36 37 39 38 39 39 39 36 35 35 34 31 32 32 33 32 31 32 31 30 30 28 26 25 31 35 32 28 28 29 20 16 17 18 21 22 21 22 22 21
37 36 37 37 37 38 38 38 39 37 35 34 32 30 29 29 30 31 32 35 35 35 35 35 32 29 33 35 36 35 34 33 30 23 16 20 18 19 21 19 19 19 18

GFSMW_sfc_temp_021.txt.gz
Temp
64 66 66 65 64 59 62 61 60 59 60 58 55 54 53 53 54 54 56 55 55 55 53 51 51 50 49 48 48 46 46 44 43 43 43 41 42 42 42 42 42 44 45
62 64 64 63 62 61 63 61 62 59 60 61 57 56 54 52 52 53 53 54 54 53 53 50 48 48 48 47 46 45 44 42 41 41 38 37 40 41 41 40 42 40 41
61 63 63 62 61 61 62 62 62 61 61 59 56 53 53 52 51 50 50 52 53 52 50 49 47 47 46 44 43 44 44 41 40 40 40 34 32 34 38 39 39 39 40
63 63 63 61 61 62 65 65 64 62 61 59 58 58 55 53 50 50 49 49 50 50 49 48 47 45 45 44 44 45 41 41 39 40 43 39 37 33 31 36 37 38 41
61 62 62 64 63 63 63 64 63 62 62 60 60 55 51 50 48 48 48 47 47 48 48 47 46 45 45 45 45 43 42 42 40 38 37 36 35 34 31 29 33 35 37
59 62 63 64 63 61 61 61 60 61 60 60 61 57 52 49 48 46 45 45 45 45 47 47 45 45 45 47 46 42 41 40 39 38 38 37 35 34 31 29 29 30 34
60 57 59 61 61 59 59 60 60 60 60 58 58 57 55 51 51 48 45 44 45 44 45 45 46 48 48 47 45 42 41 39 38 38 37 37 36 36 34 31 30 30 32
61 59 60 60 60 60 60 61 59 56 56 56 55 54 54 54 54 51 49 45 45 44 45 46 48 48 48 43 42 43 39 40 38 38 37 37 36 36 35 34 31 27 29
56 59 60 61 61 60 58 59 57 56 53 52 52 53 53 53 51 49 49 44 44 47 45 48 47 48 47 43 42 42 40 39 38 37 37 36 36 35 35 34 34 30 23
55 57 59 61 61 61 59 56 56 56 54 51 51 51 53 51 51 49 48 48 47 49 47 47 47 47 46 46 44 40 40 40 38 37 36 36 36 36 35 34 33 32 28
55 57 59 59 60 58 57 56 54 53 51 52 51 51 49 48 49 48 49 49 48 48 48 47 47 47 46 44 42 41 41 39 38 38 37 37 37 35 33 31 30 29 28
56 58 59 56 56 56 55 56 55 53 53 53 50 49 50 49 48 50 50 49 48 48 48 47 47 47 46 45 43 41 41 38 37 37 36 37 40 35 33 30 29 28 27
55 55 54 55 56 56 56 56 54 54 52 51 50 49 48 49 49 50 49 48 48 45 46 46 46 46 45 43 42 41 39 37 37 38 37 36 35 32 30 29 28 27 30
55 53 53 54 55 56 55 54 52 50 50 51 50 49 49 49 49 50 48 48 47 45 45 46 46 45 43 43 42 41 39 37 37 37 36 35 34 32 30 29 28 28 25
54 54 53 52 53 53 53 52 50 50 51 50 50 49 50 49 51 48 47 45 45 46 46 45 45 43 43 44 40 39 37 36 36 35 36 35 35 38 33 30 27 25 23
54 54 55 55 55 54 52 51 50 50 51 50 51 50 49 51 47 46 45 45 45 45 45 45 43 41 45 43 41 39 36 36 35 33 34 35 37 37 37 37 34 29 24
53 53 53 54 53 52 51 50 50 51 50 49 49 50 48 46 45 45 45 44 44 43 43 42 42 42 41 40 41 39 35 34 33 34 34 32 34 33 31 34 34 32 32
50 49 47 48 50 50 49 49 48 47 45 45 45 45 46 44 44 44 43 42 42 41 40 41 41 39 39 39 39 37 33 33 33 32 31 30 30 29 29 28 27 26 27
45 44 44 44 45 46 47 46 44 44 43 43 43 45 45 43 43 41 41 40 39 40 40 39 39 38 37 38 38 35 31 31 31 32 31 30 29 32 34 28 26 26 26
42 41 43 43 43 43 44 42 41 41 40 41 42 44 44 43 41 40 40 40 40 40 39 37 36 36 35 37 37 34 28 29 29 29 30 35 31 33 33 26 24 21 25
41 42 41 39 40 43 43 40 41 39 43 44 43 43 43 42 41 40 40 40 39 36 33 32 32 33 32 32 37 36 30 30 28 29 28 29 33 34 34 33 25 23 26
40 41 39 38 40 41 41 39 39 42 44 43 43 43 42 42 42 39 39 38 34 32 31 30 30 29 30 33 34 36 35 32 28 28 29 28 33 34 34 32 32 32 27
38 39 38 38 39 40 40 38 38 40 41 40 41 40 40 39 38 35 34 32 32 29 29 29 29 29 30 27 34 35 35 34 28 29 29 31 33 34 32 33 33 28 21
36 37 37 36 36 38 38 38 39 40 39 36 35 35 34 34 34 34 33 31 29 27 30 29 29 30 28 27 28 31 32 33 31 28 30 28 28 24 24 23 28 23 22
36 37 36 35 35 36 36 36 36 36 34 34 33 32 30 32 32 32 31 31 31 32 31 31 31 29 29 30 32 31 30 31 32 31 25 24 21 23 24 22 23 21 20
35 34 34 34 34 34 33 34 34 34 32 32 31 29 29 29 30 30 32 35 34 35 35 35 34 34 34 35 36 36 35 35 33 27 25 24 23 22 23 21 21 18 18

GFSMW_sfc_temp_024.txt.gz
Temp
62 62 62 61 60 59 59 59 58 57 59 56 53 53 53 53 53 54 55 55 54 53 51 50 49 49 48 47 47 45 45 43 42 43 41 42 42 41 41 42 43 44 44
58 60 60 59 60 59 60 59 59 58 60 60 55 55 53 51 52 52 52 53 52 52 51 48 47 47 46 45 45 45 42 41 41 41 39 37 40 41 42 41 42 41 43
58 60 60 59 60 59 60 60 60 60 60 58 54 52 52 52 51 49 49 50 51 50 49 47 46 45 45 44 43 43 44 41 42 40 40 36 35 35 39 40 40 40 41
60 61 61 59 58 59 61 61 61 60 59 57 56 57 54 52 50 49 48 47 49 48 48 47 46 45 44 43 45 45 43 42 40 40 42 39 38 36 34 37 38 38 41
60 60 61 62 61 60 60 60 60 60 60 59 58 55 50 49 48 47 46 46 46 47 47 46 46 44 44 45 45 45 42 42 39 39 38 37 36 36 33 32 34 37 39
58 60 61 61 60 58 58 58 58 59 58 58 56 55 52 49 47 45 44 44 44 44 45 46 44 44 45 46 46 45 42 41 40 40 41 38 37 35 32 30 31 32 35
56 56 57 59 59 57 59 59 58 58 57 57 55 54 53 53 51 48 46 44 43 43 43 44 45 45 47 45 46 44 41 40 39 39 39 38 37 37 35 33 32 31 34
59 58 60 60 60 59 59 60 59 59 58 58 56 55 54 54 53 51 49 47 48 45 44 47 49 47 48 47 45 43 41 40 39 38 37 37 37 37 36 34 32 30 31
54 57 59 60 59 59 60 60 60 60 56 56 53 52 52 51 50 51 50 47 47 48 48 48 48 47 47 46 44 43 42 40 38 37 37 36 37 36 36 35 34 31 27
52 54 56 58 59 60 61 59 60 59 55 53 52 51 51 51 49 49 47 48 48 48 48 47 47 46 45 45 44 42 40 38 37 38 36 35 36 36 35 34 34 33 31
52 53 55 56 58 58 57 57 56 54 51 50 50 49 49 49 49 49 48 49 49 49 48 47 46 46 45 45 43 41 39 38 38 37 36 36 36 35 34 33 33 31 30
53 53 54 55 55 56 54 53 51 51 51 50 49 49 47 48 48 48 49 48 49 48 48 47 46 46 45 44 42 40 40 38 37 36 35 36 39 35 34 32 31 30 29
53 53 53 53 53 52 51 52 51 50 49 49 49 48 49 48 49 49 49 49 48 47 47 46 46 46 45 44 41 40 39 37 37 36 35 36 35 33 31 31 30 29 31
53 52 51 51 51 52 52 51 50 49 48 49 48 48 48 49 49 49 46 45 47 46 46 46 46 46 45 44 43 41 38 37 37 36 36 35 34 34 32 31 29 29 27
51 51 51 51 51 51 51 51 49 48 48 48 48 47 47 48 47 44 46 46 45 46 46 45 45 44 42 44 41 39 38 36 35 35 35 34 36 38 34 31 29 27 26
50 51 52 52 52 51 50 49 48 47 48 47 47 48 46 45 44 43 44 42 44 44 43 43 42 41 44 42 41 40 36 36 34 34 33 34 38 37 38 38 35 30 26
47 47 47 48 48 48 49 48 47 46 46 46 46 45 44 42 43 44 44 43 43 43 42 42 41 40 40 40 40 39 35 34 35 33 34 33 35 34 32 35 35 33 33
45 44 43 44 44 45 46 45 45 44 43 42 42 42 42 43 44 44 43 42 42 42 41 40 40 39 40 39 39 38 34 33 33 33 33 32 32 31 30 29 28 28 29
41 40 40 40 41 41 42 42 41 41 41 40 41 42 44 44 43 42 41 41 40 40 40 40 39 39 37 38 38 36 31 31 31 33 32 31 30 33 35 29 27 27 28
39 39 39 40 40 39 41 40 39 39 38 40 41 43 44 43 41 41 40 40 40 39 39 38 38 36 33 36 37 36 28 29 30 30 31 35 31 33 34 29 26 23 27
39 39 39 37 38 40 40 38 39 38 40 41 41 43 43 42 42 41 40 39 39 37 34 33 32 33 33 32 36 37 30 30 29 30 29 31 34 35 35 34 26 25 28
38 38 37 37 38 39 40 38 37 39 40 40 40 41 42 42 42 39 39 36 33 31 30 28 31 30 31 34 34 35 36 33 28 30 30 30 33 35 35 34 32 31 28
36 37 37 36 37 37 38 36 36 38 38 38 37 37 37 36 35 33 32 31 30 26 29 29 29 31 31 30 34 34 35 35 29 31 32 32 33 34 33 34 33 30 26
34 35 36 35 34 35 36 35 36 36 35 33 32 32 31 32 31 31 31 30 28 27 30 29 30 30 31 29 29 29 29 31 31 30 31 30 30 30 30 29 31 31 26
35 35 35 34 32 33 33 33 33 33 32 32 31 30 29 29 30 30 30 30 30 30 30 31 30 29 30 33 33 33 29 29 30 30 23 23 26 26 26 26 27 27 25
34 33 32 32 31 32 31 32 32 31 30 30 29 28 27 26 28 29 29 33 34 35 35 35 33 33 35 35 36 36 36 35 33 29 27 26 26 25 27 26 26 26 25

GFSMW_sfc_temp_027.txt.gz
Temp
68 67 68 69 69 68 68 69 67 67 67 66 65 64 65 64 64 66 66 65 66 65 64 64 62 63 64 62 61 60 59 58 59 58 57 56 56 56 58 59 60 58 59
66 66 67 67 67 69 68 69 69 68 67 69 68 67 66 64 63 64 64 65 64 64 63 62 62 62 61 59 59 59 58 58 57 58 57 53 54 55 56 56 56 55 58
65 65 65 66 67 67 67 68 69 68 68 68 65 62 60 62 62 63 63 63 62 63 62 60 61 60 60 59 58 58 57 55 54 55 58 52 52 53 54 53 55 54 56
67 68 66 66 66 67 68 69 68 67 67 65 66 64 64 63 65 63 62 62 60 60 61 60 59 58 58 57 57 58 57 56 54 54 55 55 55 51 49 53 54 54 54
67 68 68 69 69 69 67 68 68 67 67 66 66 66 63 63 62 58 55 56 58 59 59 59 58 57 58 57 55 53 55 55 50 55 54 53 53 51 49 46 50 54 55
66 69 70 71 70 68 68 66 67 67 67 65 64 64 61 59 59 58 57 57 57 57 57 58 57 57 57 53 49 51 51 51 55 56 54 53 52 51 49 47 47 47 51
69 67 67 67 69 66 66 66 67 67 65 64 63 62 60 58 59 56 52 52 53 54 54 56 55 56 55 55 54 52 52 54 54 53 53 54 53 53 51 48 47 45 50
68 68 68 69 68 66 67 67 66 67 65 64 63 61 59 57 58 58 55 52 54 54 55 55 56 54 51 55 55 53 55 53 53 52 52 53 52 51 51 49 46 44 46
66 66 69 69 68 67 66 66 66 67 65 65 65 62 61 59 58 56 55 54 53 54 52 55 55 50 52 51 53 54 53 52 52 52 51 51 52 51 51 50 49 45 39
63 62 65 66 67 68 68 66 67 67 67 66 65 62 59 58 57 55 54 54 53 54 54 54 49 52 52 53 51 51 53 51 52 52 50 50 51 50 50 50 48 47 44
65 64 64 66 67 67 67 65 66 68 67 64 62 59 57 57 57 55 55 52 50 50 51 48 53 51 50 53 52 52 51 50 51 50 50 49 49 49 49 49 48 47 46
65 65 64 64 64 65 65 65 65 65 62 58 60 59 57 56 55 54 51 50 48 51 50 51 50 53 51 52 52 50 51 49 49 50 49 49 49 48 49 48 46 46 46
64 63 62 62 62 62 61 62 61 62 59 58 58 57 56 55 55 54 52 51 51 49 51 53 53 52 52 52 50 48 49 48 49 50 49 49 48 47 48 47 46 46 44
60 61 61 60 61 61 62 61 60 59 58 58 58 56 55 55 55 55 53 50 51 49 52 52 53 51 51 49 46 47 49 48 49 48 47 48 47 47 47 46 45 44 42
58 59 60 60 60 60 60 60 59 57 57 56 57 56 55 55 55 52 48 48 47 48 48 46 48 47 45 45 44 46 48 48 48 47 47 47 46 44 45 46 45 43 41
55 55 56 57 57 58 59 58 58 56 55 55 55 55 54 53 50 48 46 46 47 46 50 46 45 46 46 40 40 42 48 47 46 46 47 47 41 41 38 38 38 42 41
52 51 51 51 53 54 55 56 55 54 53 53 53 52 52 50 47 46 46 44 46 46 45 45 45 44 45 40 40 39 46 46 46 46 47 46 45 42 45 39 37 35 34
49 48 50 50 50 51 51 52 53 52 51 50 49 50 50 49 48 47 44 44 44 43 43 43 46 45 43 39 39 38 45 46 46 46 46 46 46 44 43 42 41 41 40
46 46 47 47 48 48 49 49 48 49 48 47 47 48 49 48 47 46 43 43 43 42 44 46 43 41 40 39 38 38 43 43 44 45 44 44 45 41 37 39 38 38 39
46 46 46 47 47 47 48 47 46 46 45 46 47 48 48 47 45 46 44 45 46 45 43 39 39 39 43 40 37 38 42 40 41 43 42 37 42 37 35 38 36 34 38
44 45 46 44 45 47 47 45 45 44 46 48 48 48 49 48 48 45 43 41 40 39 39 41 43 43 42 43 38 37 40 39 39 40 41 41 35 35 35 36 36 34 38
44 45 43 43 45 47 47 44 42 46 46 46 45 44 44 42 42 43 43 43 43 41 40 38 40 42 41 38 38 37 36 38 36 37 40 40 36 35 35 36 36 33 32
43 44 43 42 42 44 45 42 41 44 44 43 41 41 41 41 41 41 41 41 41 39 38 38 38 39 40 41 37 35 35 35 35 38 38 36 35 35 34 35 35 33 34
42 42 41 39 38 40 40 40 41 42 40 38 38 38 38 39 40 41 40 39 38 37 36 36 35 35 37 38 39 39 40 37 36 35 37 35 34 34 36 36 35 36 36
41 41 39 37 36 38 37 38 38 39 37 37 36 36 36 36 37 37 36 35 37 35 33 34 33 31 30 32 32 32 32 33 34 33 34 34 34 35 35 36 35 35 34
39 37 36 34 34 35 34 35 36 37 36 34 34 32 33 33 33 33 33 32 31 31 31 31 30 31 30 29 29 30 30 31 32 32 31 32 32 32 32 31 31 32 31

GFSMW_sfc_temp_030.txt.gz
Temp
76 76 76 77 76 77 76 76 75 75 76 77 75 75 74 76 76 77 77 75 76 74 74 74 72 73 73 72 70 70 66 68 69 67 65 65 64 63 66 67 67 65 65
76 75 76 76 75 76 76 76 77 77 77 79 78 78 77 77 76 75 74 75 74 75 73 72 72 72 71 68 68 67 67 69 67 65 65 62 63 63 63 65 63 62 64
76 76 75 75 76 75 76 77 78 78 77 78 79 77 76 74 72 70 70 73 73 74 73 71 72 70 70 68 67 67 65 64 65 63 59 60 59 63 64 60 62 60 61
79 79 77 77 76 77 78 78 79 79 78 78 78 73 74 72 71 68 72 74 71 72 73 72 70 68 69 68 67 67 65 64 59 61 64 63 62 58 57 60 60 60 59
80 79 80 81 80 79 77 78 79 79 79 77 76 75 74 76 77 71 72 70 68 67 71 70 68 67 68 66 65 62 61 63 63 61 63 61 61 59 56 54 59 61 61
80 81 82 83 82 81 79 77 77 78 78 77 75 75 74 74 71 70 67 65 61 61 65 67 66 66 66 63 61 56 57 62 61 64 62 61 58 58 56 54 55 56 58
80 80 81 82 81 80 78 77 77 77 77 76 74 74 73 71 67 66 63 61 63 59 62 63 61 58 58 59 58 54 54 59 61 60 61 61 60 60 58 55 54 53 57
80 81 82 82 82 80 79 78 77 76 78 75 74 73 71 69 67 65 60 58 57 55 60 54 57 60 56 57 52 53 56 60 60 59 59 60 60 59 58 56 53 49 53
80 81 82 83 81 80 78 77 76 75 77 76 74 72 71 69 66 63 61 60 59 61 56 53 55 57 55 53 51 56 59 57 58 58 58 58 59 59 58 57 56 50 45
76 77 78 80 81 81 81 78 78 75 76 76 74 73 71 69 63 62 59 57 59 61 59 55 55 50 50 50 54 59 58 58 57 59 58 57 58 58 58 58 56 54 50
77 76 75 78 79 79 79 77 76 74 76 78 75 72 70 64 61 61 60 61 63 61 57 52 48 49 51 56 55 56 58 53 54 57 56 56 57 56 57 57 56 54 53
76 76 76 75 76 76 77 77 77 77 77 77 75 72 66 64 63 63 62 61 61 54 50 49 50 53 58 57 54 56 54 51 50 54 55 55 57 55 56 56 53 53 54
76 75 74 74 75 74 74 74 74 75 76 73 70 69 67 64 62 60 58 56 52 49 50 51 51 53 53 55 53 52 48 47 51 56 55 55 55 54 55 54 53 54 54
70 75 74 73 73 73 72 72 71 72 71 70 69 68 65 65 64 61 58 58 56 52 52 51 53 51 55 56 50 48 48 51 54 53 54 55 55 54 54 54 53 53 51
69 70 72 72 72 70 70 70 69 67 67 67 67 66 65 65 64 62 62 61 57 54 50 50 49 53 51 51 48 48 47 52 53 54 55 55 53 48 49 54 52 52 49
66 67 68 68 68 68 70 67 67 65 66 65 64 63 62 62 60 58 55 52 50 50 47 50 46 48 49 40 40 41 47 51 52 52 53 55 49 47 42 42 42 46 49
64 63 63 64 65 65 66 65 64 64 63 62 61 60 60 58 57 56 54 50 48 47 46 47 48 47 48 41 40 39 45 46 49 51 52 52 55 49 52 42 38 38 37
61 61 62 62 63 64 63 63 63 62 60 59 58 58 58 56 55 54 51 46 47 46 47 47 48 48 49 40 39 38 41 47 50 51 52 51 52 53 51 50 48 46 47
60 60 61 61 61 61 61 61 60 59 58 56 56 57 56 56 55 53 51 51 51 50 48 48 49 46 47 40 39 40 48 48 49 51 51 51 51 46 41 47 46 47 46
59 58 59 59 59 59 60 58 56 56 54 54 55 56 56 54 53 52 50 51 51 49 47 44 42 39 41 41 40 41 46 45 46 48 49 42 44 41 38 45 45 42 45
56 57 58 56 57 58 58 55 54 52 54 55 54 53 53 51 50 49 45 43 41 41 43 46 49 49 48 48 40 39 43 43 44 44 46 48 40 37 37 38 43 41 45
55 56 54 54 56 58 56 53 51 53 53 52 50 49 47 47 49 49 50 51 50 48 47 45 46 48 48 42 41 38 37 38 38 40 43 45 40 38 36 37 38 38 35
55 55 53 52 53 54 54 50 51 52 51 50 49 49 49 49 49 49 48 49 48 46 44 43 42 43 44 45 36 35 35 36 35 36 38 36 35 36 36 35 36 35 39
54 54 51 49 47 50 50 50 50 50 49 47 46 47 45 46 46 48 47 46 43 41 40 40 39 39 39 40 37 35 36 34 35 36 38 35 32 33 34 36 39 40 40
52 52 49 47 46 47 47 48 48 49 46 44 43 43 43 43 44 44 41 39 40 35 35 35 35 32 31 33 30 29 31 31 31 30 33 35 36 36 38 37 36 36 39
49 48 46 45 44 44 44 44 45 46 44 42 41 38 40 41 42 41 41 31 31 30 30 29 29 30 29 27 27 28 28 28 29 30 32 33 33 34 36 37 36 36 34

GFSMW_sfc_temp_033.txt.gz
Temp
79 76 77 77 77 76 75 75 75 75 76 74 76 77 76 78 78 77 78 79 79 78 76 78 74 74 75 74 73 72 69 69 70 68 69 69 67 66 68 68 68 68 67
78 77 76 78 77 76 77 77 77 77 78 79 80 79 79 80 80 76 78 79 78 78 76 76 74 73 75 72 70 70 69 70 69 67 66 62 63 65 65 67 66 64 65
78 78 77 77 77 77 77 79 79 79 79 81 82 81 81 80 79 77 75 76 76 77 77 75 74 73 74 70 69 68 68 67 67 67 63 60 60 64 66 63 64 63 63
82 81 79 78 78 78 79 80 81 81 81 81 81 78 77 76 78 77 77 75 74 74 77 76 74 73 73 71 69 70 68 66 65 67 66 65 63 58 58 64 62 62 61
82 82 81 81 81 80 79 79 81 82 82 81 79 79 76 78 79 78 74 72 75 74 75 75 72 71 70 70 68 67 65 64 59 59 57 63 63 61 57 54 60 62 63
83 85 86 85 84 83 81 80 80 82 82 81 79 78 76 76 78 76 73 73 72 71 71 72 68 66 63 66 67 65 60 56 59 56 60 62 60 60 59 56 57 58 62
83 85 85 85 85 83 81 81 81 80 81 80 79 77 77 77 76 74 72 71 68 63 61 61 60 58 58 53 53 54 53 53 54 58 61 64 62 62 61 58 56 54 59
84 85 86 86 86 85 83 81 81 80 81 79 79 79 74 74 74 71 70 66 61 55 56 55 59 58 54 55 55 52 50 52 54 58 61 61 60 62 60 57 54 50 53
85 85 86 87 86 86 85 82 82 82 82 81 76 76 74 72 74 72 71 65 60 60 59 62 60 56 54 51 49 49 52 50 57 59 58 58 59 61 61 59 57 52 45
83 84 86 86 88 88 88 85 83 83 83 80 76 76 75 74 71 69 64 61 61 61 62 60 57 57 54 49 50 49 50 54 54 58 55 56 59 59 59 59 58 56 51
82 81 82 85 86 87 86 85 83 82 83 81 79 75 72 69 69 66 63 62 61 62 63 59 58 54 50 48 49 51 55 56 57 54 53 55 58 58 58 58 57 55 54
82 82 82 81 82 83 83 84 83 81 82 81 79 73 67 64 63 62 63 61 61 63 61 61 56 51 49 50 52 51 54 56 52 49 51 54 58 56 56 55 54 54 54
82 82 81 79 79 79 80 81 80 80 81 81 80 76 65 63 61 60 60 59 59 57 56 53 50 49 49 51 51 54 56 51 49 49 52 55 56 54 55 55 54 54 54
80 82 81 79 79 78 77 77 77 79 79 78 75 73 69 64 63 62 61 58 55 52 50 50 49 48 51 53 53 51 50 48 48 49 53 55 55 54 54 54 53 53 52
77 78 79 78 77 75 76 76 73 73 74 73 72 69 68 68 66 63 61 59 56 55 53 49 49 49 51 52 51 49 47 47 47 50 54 54 53 48 48 53 52 52 50
75 75 76 76 74 74 74 72 70 70 71 70 68 68 67 67 65 63 61 59 58 56 53 51 53 49 50 41 41 46 49 46 46 47 50 53 49 50 43 44 43 47 49
72 72 72 71 71 72 71 68 69 70 68 67 66 65 64 62 60 60 58 57 55 54 50 48 47 47 48 40 40 39 45 43 43 43 45 49 53 50 55 49 41 41 40
69 69 69 68 69 70 69 68 68 67 65 64 63 63 61 60 59 58 56 53 52 51 51 51 52 53 52 41 40 38 41 40 42 46 50 51 52 53 51 52 51 52 51
69 69 69 68 68 68 68 67 65 64 63 61 61 61 60 59 58 56 55 55 54 53 52 53 52 50 49 40 39 39 42 47 48 50 51 51 51 47 44 47 46 48 49
67 66 67 67 66 66 66 64 62 61 59 59 59 60 60 58 55 52 51 50 51 50 51 47 46 42 45 43 39 41 45 44 45 47 49 43 45 41 40 44 44 42 47
66 65 66 65 64 65 64 61 59 58 59 59 59 57 56 53 52 51 50 49 49 49 47 48 51 51 49 48 38 37 41 37 34 37 40 43 39 38 37 37 41 41 45
63 64 62 61 63 64 62 59 57 58 57 56 54 53 52 52 53 53 53 54 52 50 49 47 47 49 49 39 36 36 34 34 35 36 38 39 37 36 36 36 36 36 36
63 63 61 59 61 61 61 57 56 57 55 54 53 53 53 54 54 52 51 52 50 47 45 44 43 45 45 45 36 35 34 34 34 36 35 34 34 34 35 36 36 34 36
62 62 59 57 56 58 58 56 56 56 54 52 51 51 51 50 51 52 50 48 44 42 41 41 40 40 39 40 36 33 33 32 33 33 33 31 31 32 32 34 38 39 36
61 59 56 54 53 55 54 55 55 54 51 49 49 47 47 48 47 46 43 42 37 35 36 36 36 32 31 32 28 28 29 30 29 28 31 33 35 34 35 36 37 38 39
58 57 54 53 52 52 51 52 53 52 49 46 45 43 43 44 46 45 39 31 32 31 30 29 29 30 29 27 26 27 28 28 28 29 30 30 30 29 30 30 31 34 34

GFSMW_sfc_temp_036.txt.gz
Temp
71 71 70 68 67 66 66 67 67 67 69 67 66 68 67 70 70 68 72 70 72 71 69 68 66 65 64 64 63 61 60 58 59 57 57 57 58 57 57 57 57 58 58
72 71 70 70 67 66 67 68 68 69 70 70 70 71 70 71 72 70 70 67 68 71 69 67 66 65 64 63 61 60 57 58 58 54 54 50 52 54 56 55 57 54 56
71 71 71 70 70 68 68 71 71 70 70 71 72 74 72 72 72 70 69 70 71 72 70 67 66 64 63 61 60 59 58 55 55 57 52 48 48 51 53 53 53 52 52
76 73 72 72 70 71 72 73 73 73 74 74 73 72 71 69 71 70 70 71 70 69 69 68 66 65 64 62 59 61 58 56 53 55 59 56 55 49 46 50 51 53 54
77 75 74 74 75 74 73 73 75 75 75 75 73 72 70 71 72 70 69 68 67 68 66 67 65 64 63 61 61 60 58 57 53 51 50 52 53 52 48 45 50 50 51
78 79 78 77 76 75 74 74 74 76 76 75 73 71 67 69 69 68 68 67 66 67 65 66 63 58 56 54 53 54 56 54 53 51 51 50 50 50 47 46 46 47 50
78 78 78 78 77 75 73 74 74 75 76 75 74 72 71 70 69 69 67 65 64 63 60 58 56 55 54 53 52 53 52 51 50 50 50 51 54 55 52 49 45 44 48
79 79 80 79 79 77 75 75 75 74 76 75 74 73 73 71 68 67 64 63 62 60 57 56 55 54 53 53 53 51 49 49 48 48 49 52 54 53 52 50 45 40 43
80 80 82 82 80 79 76 75 76 77 77 76 74 73 71 66 63 64 65 62 59 58 56 55 54 54 53 52 50 49 48 48 48 48 50 52 52 52 52 50 49 44 36
81 81 82 81 82 81 81 77 77 78 78 77 75 72 66 66 65 66 64 60 57 57 56 55 55 53 52 51 50 48 49 48 48 50 51 51 51 50 50 50 48 46 41
79 79 79 80 82 83 82 78 78 78 78 78 74 69 65 62 63 67 62 59 58 57 57 56 54 53 52 51 49 48 48 48 49 49 48 49 50 51 50 48 47 46 45
80 80 79 79 79 80 81 79 78 79 79 75 68 67 67 67 64 61 61 59 59 58 57 57 55 54 51 50 48 48 50 48 47 47 47 47 51 49 51 49 46 44 45
80 79 78 77 77 77 77 78 77 77 78 77 70 66 64 61 61 59 58 57 56 55 55 54 53 50 48 48 48 49 47 47 47 46 46 47 47 48 48 46 45 44 49
79 79 77 76 76 76 76 76 74 74 75 74 64 64 62 61 59 58 56 53 52 50 49 49 49 48 48 49 49 48 47 46 46 46 47 47 48 46 46 47 47 47 43
77 77 77 75 75 73 73 74 71 70 71 70 68 63 62 61 60 57 56 54 52 50 49 48 47 47 48 49 48 47 45 45 45 45 48 48 48 45 45 47 44 43 42
76 77 77 76 74 73 72 70 68 68 68 67 65 66 64 64 61 58 56 54 52 52 49 47 46 46 49 42 44 45 46 46 45 42 45 46 45 45 43 43 43 44 42
74 74 74 72 72 70 68 66 66 67 65 64 64 63 62 59 57 56 55 52 50 49 47 47 46 45 44 41 41 40 42 41 40 41 42 43 46 44 46 44 42 39 39
72 71 70 69 69 68 67 66 66 64 63 62 61 61 59 57 56 54 51 48 47 46 45 46 46 46 47 40 40 38 39 39 41 41 41 41 42 44 43 42 40 42 43
70 69 68 68 66 66 66 65 63 62 61 60 59 59 57 55 54 51 50 49 48 48 48 49 48 48 43 40 39 39 39 41 41 44 43 41 40 38 38 36 34 36 39
69 68 67 66 65 64 64 62 60 59 58 58 58 59 58 55 52 49 47 48 49 48 48 45 43 41 43 40 38 39 35 33 31 35 38 37 37 37 37 33 32 31 33
67 67 66 63 63 64 62 59 58 56 58 58 58 56 53 50 50 50 48 46 45 44 41 41 43 45 39 36 36 36 31 28 29 30 31 31 36 35 35 35 31 31 34
65 65 63 61 62 63 60 58 55 57 56 54 53 52 51 51 50 47 48 48 46 43 40 38 37 38 36 35 35 34 33 33 28 29 30 31 33 33 34 32 34 34 33
63 65 61 59 60 61 60 56 55 55 54 52 51 50 52 52 52 48 46 45 43 38 34 34 33 34 32 32 33 32 32 32 28 29 31 31 31 32 31 34 35 33 32
63 63 60 58 57 59 59 55 55 55 52 50 49 48 47 47 47 48 46 40 35 33 32 32 31 30 31 27 27 27 26 28 28 27 26 26 28 28 29 30 30 30 30
62 61 57 56 55 56 54 55 54 54 50 48 47 45 44 44 41 37 36 32 31 31 30 29 29 25 24 24 26 26 25 24 26 23 24 26 27 26 26 26 27 27 27
60 57 55 54 53 52 52 53 53 50 47 44 42 38 37 38 41 36 33 33 31 31 30 29 27 27 27 27 27 27 28 28 28 24 23 21 20 21 23 22 23 23 23

GFSMW_sfc_temp_039.txt.gz
Temp
60 61 59 60 59 58 58 58 58 59 61 61 60 59 60 62 62 62 67 65 67 66 63 63 62 65 61 60 59 58 57 55 54 53 52 52 53 53 53 53 53 54 54
61 61 61 59 59 59 60 60 61 61 63 64 65 63 62 61 63 63 64 65 65 65 64 62 61 61 60 59 58 57 54 54 53 51 49 47 49 50 53 51 53 51 53
60 62 61 59 60 60 61 63 64 65 66 66 67 64 61 61 61 60 63 65 64 66 64 62 61 60 59 58 56 55 56 52 51 52 50 46 44 46 49 53 50 50 49
64 64 63 59 60 61 63 64 65 65 67 67 66 64 64 64 65 61 63 63 64 63 65 63 63 62 60 58 57 59 57 55 52 53 56 53 52 46 43 51 51 49 50
64 65 64 64 63 64 64 65 66 66 68 67 67 65 65 65 66 63 64 65 63 65 64 61 60 60 59 59 59 57 55 53 51 51 51 51 51 51 47 44 48 46 48
67 67 68 68 66 65 66 66 67 67 67 67 67 67 64 63 63 62 63 63 64 63 62 63 61 59 55 54 54 54 53 52 52 51 50 50 49 48 46 44 43 45 48
69 67 67 68 67 67 66 67 68 68 69 69 69 68 65 62 64 63 60 61 59 58 60 59 56 55 54 55 55 52 50 50 50 50 50 50 50 50 49 49 42 42 43
71 70 69 69 70 69 69 68 68 69 70 70 69 70 67 66 67 61 59 59 61 61 57 55 55 54 54 52 51 50 49 50 49 49 49 49 50 50 51 50 46 38 39
67 71 72 71 71 71 70 70 70 71 71 70 70 69 69 66 62 62 62 62 62 57 55 55 53 51 50 50 49 48 49 49 49 48 49 48 50 50 50 50 47 41 34
69 71 72 73 73 73 73 71 72 72 72 72 70 69 67 67 63 63 59 59 56 57 54 54 53 52 50 49 50 49 49 49 48 48 48 48 49 49 49 48 45 44 39
67 67 67 69 74 77 75 71 71 67 68 67 69 68 65 65 66 62 60 58 56 56 55 55 53 50 49 50 50 49 49 48 47 48 48 48 48 47 48 45 46 45 43
68 69 68 68 68 69 74 72 71 68 64 65 67 65 61 61 58 59 57 56 55 56 56 54 53 52 51 50 49 48 49 47 46 46 46 47 49 46 47 46 44 43 42
67 67 68 68 68 68 67 70 69 67 66 66 68 61 61 62 59 58 57 56 55 55 55 54 52 51 49 48 48 48 48 47 47 46 45 46 46 45 43 43 42 45 47
69 66 65 67 67 67 66 65 65 65 64 63 61 58 58 57 57 56 55 53 53 52 52 52 51 50 48 49 48 48 46 45 46 46 46 47 45 44 44 43 40 42 40
68 66 65 64 64 64 63 63 62 62 63 61 59 57 57 57 55 54 53 51 51 50 49 48 47 48 47 48 47 47 45 45 45 45 47 47 45 43 43 44 43 42 41
68 68 67 66 66 64 61 62 61 60 61 59 58 58 58 57 56 54 52 51 49 49 48 46 46 45 47 41 42 45 45 45 44 43 42 43 44 44 41 41 41 40 38
66 66 66 65 64 62 61 59 59 59 59 58 58 56 55 53 51 51 52 50 48 44 42 41 41 41 41 41 41 41 42 40 38 38 38 43 45 40 40 38 37 37 38
64 63 61 59 60 60 60 58 59 57 56 56 55 54 53 51 49 47 45 43 42 41 40 41 41 41 41 40 40 38 38 37 39 41 40 37 36 35 36 34 32 33 35
60 58 58 59 57 58 57 58 56 55 55 53 53 53 51 49 47 45 43 42 42 41 41 42 41 41 40 40 38 38 38 40 37 38 36 35 33 36 36 31 29 30 31
61 60 59 58 57 55 56 55 53 53 52 52 52 52 51 49 46 43 42 42 42 43 45 43 43 40 40 38 38 37 30 29 28 31 33 34 33 35 34 30 27 26 27
59 58 58 56 54 55 55 51 50 49 52 53 51 49 48 46 45 43 42 41 40 40 37 38 38 36 34 34 35 34 28 27 27 27 27 27 33 33 33 33 28 28 31
58 58 55 54 53 54 53 49 48 50 50 49 47 47 46 47 46 43 42 42 40 37 34 32 31 31 32 33 33 33 32 31 26 27 26 26 31 31 32 31 33 33 29
57 56 54 52 52 53 53 49 47 49 48 47 46 45 46 46 45 41 38 38 36 32 30 32 30 27 27 26 29 30 30 29 25 26 27 29 29 30 29 31 31 28 26
54 55 53 51 49 52 51 49 49 49 47 44 43 42 41 40 40 40 37 33 29 28 29 29 27 26 23 23 23 25 23 26 26 25 24 24 25 25 25 27 27 26 25
53 54 51 49 47 50 49 50 49 47 44 42 41 39 37 34 32 31 30 28 29 29 26 24 27 22 20 24 26 26 25 21 25 18 17 20 22 23 23 24 24 23 23
52 50 48 47 46 47 46 46 47 45 41 39 36 32 31 32 32 30 29 32 31 32 31 30 27 27 27 27 27 28 28 29 29 22 15 12 12 16 20 19 19 19 18

GFSMW_sfc_temp_042.txt.gz
Temp
56 56 55 56 57 55 56 58 58 58 59 60 59 59 57 56 58 59 61 62 63 64 61 61 60 60 62 61 59 56 55 52 52 51 50 50 50 50 50 50 51 51 52
55 55 54 54 54 54 55 57 58 58 59 60 60 59 60 57 59 60 60 62 63 63 62 61 60 61 59 58 56 56 52 52 51 50 47 46 48 48 50 49 50 50 54
54 55 55 54 54 54 55 57 58 58 60 61 60 57 57 57 58 61 61 62 63 63 63 61 60 60 60 58 56 55 55 52 49 51 50 43 44 46 47 49 49 51 48
58 57 56 55 55 55 57 58 59 59 60 61 60 60 60 59 62 63 64 61 62 63 63 61 60 59 59 56 56 55 53 54 52 53 56 53 51 47 45 47 51 51 50
59 57 57 57 58 58 58 59 60 61 62 62 62 61 60 62 61 58 61 62 61 63 62 61 59 59 58 56 55 53 53 53 52 51 50 51 51 51 47 44 49 49 49
60 60 61 60 59 60 60 61 61 62 64 64 63 62 60 61 61 59 60 62 62 61 60 61 60 59 58 56 55 54 52 51 51 51 51 51 49 48 47 45 46 46 49
61 61 60 59 59 59 60 61 62 62 64 64 64 64 63 61 62 62 60 60 58 57 59 61 59 58 57 56 55 53 53 50 50 50 51 51 50 49 50 48 47 44 46
63 62 63 62 61 61 61 62 62 62 64 64 64 65 64 64 63 64 60 61 62 62 60 60 60 59 55 54 55 53 52 50 50 50 50 50 50 50 50 48 46 41 41
65 64 65 64 64 63 62 62 63 64 65 65 65 65 65 64 63 62 60 60 63 62 60 58 56 55 54 54 52 51 50 50 50 50 50 49 49 49 49 49 47 43 38
67 66 66 66 67 66 65 65 66 65 66 67 66 66 66 65 65 62 60 59 56 57 56 55 54 53 52 51 51 50 50 50 50 50 48 48 48 48 48 47 45 45 42
63 67 67 68 69 69 68 65 65 65 65 65 66 66 65 65 63 60 59 57 57 57 55 54 53 52 51 51 50 50 49 49 48 48 48 47 48 46 46 46 46 45 43
64 67 66 68 68 69 69 68 67 66 67 67 66 62 60 59 59 59 58 58 58 57 56 54 54 53 51 51 49 48 49 48 47 46 46 46 49 46 46 45 44 44 44
63 63 62 64 65 67 70 70 68 67 68 64 63 61 61 60 61 60 59 59 59 58 55 55 53 51 51 49 48 49 48 48 47 46 46 46 45 44 44 43 43 43 43
64 64 62 63 63 63 63 68 67 67 66 62 62 62 60 61 62 62 59 57 56 54 54 53 52 50 49 49 49 48 47 46 46 46 46 46 46 44 43 43 41 42 39
64 62 62 62 60 59 59 60 67 67 65 63 62 62 60 61 59 56 55 54 53 52 52 51 50 48 48 48 47 47 45 45 44 45 46 46 46 43 42 42 41 39 39
64 65 63 62 61 60 58 58 57 57 60 60 60 59 57 57 55 53 51 50 50 49 48 47 46 46 47 41 42 45 45 45 44 43 43 43 43 43 39 38 38 36 32
63 62 63 63 61 60 59 56 56 57 57 57 57 56 55 54 52 52 50 49 47 46 45 44 45 44 44 41 41 41 44 42 41 39 40 41 42 39 38 35 35 34 36
62 61 62 59 57 56 55 56 57 55 54 53 52 52 51 51 50 48 45 43 43 43 40 39 40 41 41 39 39 38 38 36 38 39 38 37 36 35 33 31 29 30 31
61 61 61 57 56 56 56 55 54 53 52 51 51 50 49 48 46 44 42 41 41 40 39 40 39 39 38 39 38 37 35 35 34 36 37 35 31 35 35 30 28 28 29
57 55 55 55 55 53 55 53 51 51 49 49 48 49 48 46 43 41 40 40 40 40 41 39 38 37 36 37 38 38 35 32 31 31 31 33 31 33 33 28 26 25 26
56 55 56 55 53 53 54 50 49 48 49 49 48 47 46 44 43 41 41 40 39 38 36 34 35 35 35 35 35 34 30 28 28 27 27 27 31 32 32 33 28 28 28
53 55 53 51 51 53 52 49 47 47 48 47 45 44 44 45 43 41 41 41 39 34 31 30 29 30 30 33 33 33 31 30 27 27 27 27 30 31 31 30 32 31 27
55 55 52 49 49 51 52 47 44 46 46 45 44 44 44 43 42 39 38 36 35 32 30 28 26 24 25 25 30 30 29 28 26 27 28 28 29 29 28 30 29 25 24
52 52 51 48 46 48 48 46 46 46 45 42 41 39 37 36 35 35 35 32 29 29 30 28 26 24 23 24 25 25 25 26 26 26 25 24 25 24 24 25 26 25 23
51 52 49 47 45 46 45 46 45 44 41 39 37 34 33 32 30 29 29 29 30 30 28 27 27 22 21 25 27 27 26 23 26 21 19 21 21 21 22 22 22 21 21
48 47 45 44 44 44 43 43 43 42 38 35 33 30 30 30 30 29 28 32 32 32 31 30 27 26 28 28 28 28 28 29 28 22 18 14 12 15 18 17 17 17 16

GFSMW_sfc_temp_045.txt.gz
Temp
54 54 59 57 57 57 58 58 58 58 59 59 60 59 57 59 60 60 62 60 61 61 59 58 58 58 59 59 58 54 54 51 52 51 49 49 49 49 49 49 49 50 51
52 53 53 54 53 54 56 58 59 59 60 62 63 62 57 58 59 60 58 60 61 61 60 59 58 58 58 56 55 55 52 52 50 49 47 46 48 47 51 49 49 48 49
52 52 53 52 51 51 53 56 59 59 61 61 57 57 58 57 56 55 55 58 59 60 60 59 59 58 57 56 55 53 54 50 49 50 52 43 45 49 51 50 50 50 49
56 54 52 52 50 51 53 56 57 58 59 57 56 55 58 57 59 57 57 58 59 60 61 60 59 58 57 55 56 55 53 53 49 52 53 54 51 48 48 47 50 51 52
58 55 54 54 53 53 53 55 56 57 58 58 58 56 55 57 58 56 56 57 57 59 60 60 59 58 57 56 55 53 53 51 50 50 50 50 50 50 48 44 49 49 50
58 59 58 56 54 54 54 55 56 57 58 58 58 57 56 56 57 58 57 58 57 57 58 59 59 58 56 56 56 56 53 53 51 50 50 49 49 47 47 43 43 47 50
58 58 57 56 55 54 54 55 56 56 58 58 59 59 58 57 59 59 58 57 56 56 58 58 57 57 58 57 56 54 54 53 52 51 53 52 52 51 50 48 43 45 47
59 58 59 58 57 56 56 56 57 57 59 59 59 60 60 60 60 60 59 57 58 59 58 58 59 60 58 55 55 54 54 53 52 50 52 52 51 51 50 49 46 42 42
59 59 60 60 59 58 58 57 58 59 60 60 61 61 61 60 60 59 59 58 59 60 58 58 59 59 58 57 55 54 52 52 52 52 52 52 50 50 49 49 47 43 38
61 61 61 61 61 61 60 59 60 61 61 61 61 62 61 61 61 60 58 57 58 57 56 56 56 56 55 55 54 53 52 52 50 50 50 50 49 47 48 46 46 44 42
62 62 63 63 63 63 62 60 60 61 61 61 61 62 62 62 61 61 62 58 56 56 57 56 55 54 54 51 51 50 49 51 49 49 50 48 48 46 46 45 45 44 43
61 65 64 64 63 63 63 62 61 61 62 62 62 61 62 62 61 60 60 58 58 58 57 56 54 52 51 51 51 49 49 49 48 48 47 46 47 45 45 45 44 43 43
60 61 61 62 64 64 64 64 62 62 63 63 62 61 61 61 61 62 61 60 61 59 59 58 56 54 53 51 50 50 49 48 48 47 46 46 46 44 43 43 43 43 44
60 59 61 63 65 65 65 65 65 64 64 64 62 61 61 61 62 61 62 61 59 59 59 56 55 53 51 51 49 48 47 47 47 46 47 46 45 44 43 43 41 41 38
60 59 58 59 60 61 63 65 66 65 64 63 62 62 62 63 61 60 60 59 59 58 55 53 52 50 49 49 48 47 46 45 45 45 46 45 45 42 41 42 38 37 34
62 63 61 60 59 61 62 61 61 59 62 63 61 61 57 57 57 56 55 53 52 51 52 50 48 47 48 44 42 45 45 45 44 43 43 43 41 39 38 38 37 34 30
62 62 60 63 62 61 58 57 55 57 59 59 58 57 56 56 54 53 52 50 48 47 47 46 47 46 44 41 41 41 44 43 42 41 41 41 40 38 36 35 34 33 34
61 61 63 59 59 56 54 53 54 56 57 57 56 55 54 51 50 50 48 46 46 45 44 44 44 44 43 40 39 39 40 40 40 39 38 36 35 35 34 32 30 29 30
65 65 63 58 55 54 53 53 52 53 54 52 52 52 51 50 49 46 45 43 43 42 42 43 42 42 40 38 38 38 38 36 35 36 35 34 33 34 35 30 28 28 29
58 56 53 53 54 52 53 51 50 50 50 50 50 50 50 48 45 42 41 39 39 39 39 36 36 37 36 38 38 36 33 31 30 32 32 33 32 32 32 27 26 25 26
53 52 53 53 53 53 53 49 49 47 47 47 47 47 47 45 42 40 40 38 38 36 35 33 34 35 35 35 36 36 33 31 30 30 29 28 31 31 32 32 27 27 26
51 52 50 49 50 52 52 48 45 46 46 46 44 43 43 43 41 39 38 38 36 34 32 30 29 30 31 33 33 33 32 32 29 27 26 26 30 31 31 29 31 29 25
50 51 49 47 47 49 50 45 44 45 44 43 42 41 41 40 39 38 36 34 34 32 31 29 27 26 27 29 31 31 30 29 27 27 28 29 29 29 28 29 28 25 23
48 49 49 46 44 46 46 45 45 45 43 41 38 37 35 34 34 34 34 32 32 32 30 28 26 25 25 24 24 25 25 27 27 26 26 25 26 25 24 25 25 24 22
49 48 46 44 42 44 43 44 44 43 38 36 34 32 31 31 31 31 32 30 30 31 29 27 26 22 22 24 27 26 26 25 26 23 23 21 21 20 21 21 21 20 20
46 44 43 42 41 41 40 40 41 40 36 32 31 30 30 29 30 29 29 32 32 32 31 30 28 27 28 29 29 28 29 29 27 23 18 13 11 16 18 17 17 17 16